[[{"header":{"parameterUnit":"m.s-1","parameterCategory":1,"la1":30.2991,"la2":30.254,"lo1":-89.0895,"lo2":-89.0444,"dy":0.0017,"dx":0.0017,"nx":28,"ny":28,"refTime":"2024-06-19T03:00:00:Z","depth":0,"parameterNumber":2,"parameterNumberName":"U-component_of_WINDS"},"data":[0,0,0,0,0,0,0,0,0,0,0,0,0,0,0,0,0,0,0,0,0,0,0,0,0,0,0,0,0,0,0,0,0,0,0,0,0,0,0,0,0,0,0,0,0,0,0,0,0,0,0,0,0,0,0,0,0,0,-7.606,-7.606,0,-7.6024,-7.6023,-7.6023,-7.577,-7.5764,-7.5758,-7.5752,-7.5718,-7.5723,-7.5727,0,0,0,0,0,0,0,0,0,0,0,0,0,-7.5913,-7.5917,-7.606,-7.606,-7.6059,-7.6024,-7.6023,-7.6023,-7.5771,-7.5764,-7.5756,-7.5749,-7.5716,-7.5722,-7.5728,0,0,0,0,0,0,0,0,0,0,0,0,0,-7.5937,-7.5919,-7.606,-7.5929,-7.5917,-7.6024,-7.6023,-7.6023,-7.5773,-7.5764,-7.5754,-7.5746,-7.5714,-7.5721,-7.5729,-7.5959,0,0,-7.5751,-7.5754,0,0,0,0,0,0,0,0,-7.5936,-7.5943,-7.5949,-7.5939,-7.5925,-7.5892,-7.5959,-7.6002,-7.5775,-7.5828,-7.5752,-7.5741,-7.5784,-7.5784,-7.5798,-7.5957,-7.5956,-7.5751,-7.5756,-7.5759,-7.5761,0,0,0,0,0,0,0,-7.5935,-7.5943,-7.6046,-7.595,-7.5935,-7.5873,-7.5866,-7.5966,-7.5858,-7.5823,-7.5804,-7.5803,-7.5775,-7.5792,-7.5795,-7.5955,-7.5751,-7.5758,-7.5762,-7.5765,-7.6299,-7.6309,0,0,0,0,0,0,-7.5951,-7.5944,-7.6047,-7.6045,-7.5908,-7.5883,-7.5876,-7.5912,-7.5856,-7.5839,-7.5811,-7.5792,-7.5784,-7.5787,-7.5793,-7.6056,-7.5759,-7.5766,-7.577,-7.629,-7.6301,-7.6312,0,0,0,0,0,0,-7.5949,-7.5963,-7.6048,-7.5989,-7.5995,-7.5896,-7.5939,-7.5916,-7.5932,-7.5848,-7.5827,-7.5848,-7.5777,-7.5783,-7.5919,-7.6051,-7.5769,-7.5776,-7.6278,-7.6293,-7.6307,-7.6587,0,0,0,0,0,0,-7.5946,-7.5964,-7.605,-7.5993,-7.5999,-7.6175,-7.5947,-7.5922,-7.5945,-7.5919,-7.5876,-7.5861,-7.577,-7.5909,-7.5926,-7.6056,-7.5781,-7.6265,-7.6285,-7.6302,-7.6565,-7.6609,-7.6647,0,0,0,0,0,-7.5942,-7.6131,-7.6055,-7.6069,-7.6105,-7.6183,-7.6186,-7.6077,-7.5957,-7.6042,-7.5988,-7.5862,-7.6036,-7.5925,-7.5942,-7.6077,-7.6256,-7.6279,-7.6301,-7.6546,-7.66,-7.6646,0,0,0,0,0,0,-7.6207,-7.6121,-7.6036,-7.6213,-7.6207,-7.614,-7.6244,-7.6138,-7.6167,-7.6142,-7.6006,-7.5999,-7.6155,-7.613,-7.6009,-7.6296,-7.6124,-7.6151,-7.6305,-7.6356,-7.6396,-7.6397,-7.5787,0,0,0,0,0,-7.6287,-7.6357,-7.6278,-7.6442,-7.6443,-7.6346,-7.6375,-7.6292,-7.628,-7.6277,-7.6232,-7.6227,-7.6279,-7.6317,-7.6361,-7.6562,-7.6547,-7.6663,-7.6704,-7.6738,-7.6761,-7.6862,-7.6912,-7.6385,-7.6384,-7.6384,0,0,-7.6451,-7.6412,-7.6465,-7.6494,-7.6479,-7.6554,-7.6345,-7.6434,-7.6488,-7.629,-7.6414,-7.6383,-7.6367,-7.6536,-7.6608,-7.652,-7.6904,-7.6766,-7.6794,-7.6798,-7.689,-7.694,-7.6985,-7.64,-7.6397,-7.6395,0,0,-7.6787,-7.6767,-7.6898,-7.6888,-7.6868,-7.6802,-7.6835,-7.6784,-7.6754,-7.6877,-7.6729,-7.6793,-7.6888,-7.6882,-7.6892,-7.7227,-7.7111,-7.7246,-7.7458,-7.7559,-7.76,-7.7636,-7.7753,-7.7796,-7.727,-7.7271,-7.7272,0,-7.6993,-7.71,-7.698,-7.7078,-7.7094,-7.6919,-7.7051,-7.7048,-7.7045,-7.706,-7.6962,-7.7075,-7.7053,-7.7216,-7.7298,-7.7314,-7.7345,-7.7248,-7.7604,-7.7639,-7.7671,-7.778,-7.7825,-7.7287,-7.7285,-7.7284,-7.7282,0,-7.7353,-7.7429,-7.7539,-7.7537,-7.7567,-7.7683,-7.7581,-7.7625,-7.754,-7.7485,-7.7611,-7.7579,-7.7612,-7.7646,-7.7565,-7.7798,-7.7743,-7.7628,-7.7451,-7.7739,-7.7839,-7.7881,-7.731,-7.7305,-7.73,-7.7296,0,0,-7.7852,-7.7784,-7.7826,-7.7822,-7.7788,-7.7845,-7.7953,-7.7984,-7.8023,-7.8028,-7.8113,-7.8198,-7.8089,-7.8101,-7.8018,-7.8107,-7.8371,-7.7979,-7.7976,-7.805,-7.8623,-7.8708,-7.8758,-7.8296,-7.8304,-7.831,-7.8623,0,-7.8172,-7.8349,-7.8245,-7.8437,-7.8505,-7.834,-7.8434,-7.8424,-7.8376,-7.8427,-7.8374,-7.8434,-7.8289,-7.8294,-7.8375,-7.8322,-7.8484,-7.8299,-7.8373,-7.8377,-7.8377,-7.8811,-7.8901,-7.9198,-7.8662,-7.8669,-7.8673,0,-7.8567,-7.8586,-7.8786,-7.8736,-7.8761,-7.8846,-7.8865,-7.8918,-7.8903,-7.8861,-7.8875,-7.877,-7.8872,-7.8702,-7.884,-7.8716,-7.8741,-7.8721,-7.8729,-7.8728,-7.8539,-7.8818,-7.929,-7.9334,-7.8735,-7.873,-7.8725,0,-7.8906,-7.8983,-7.911,-7.9114,-7.9061,-7.9124,-7.9106,-7.9081,-7.9106,-7.9125,-7.9139,-7.9171,-7.9188,-7.9215,-7.9121,-7.9006,-7.9271,-7.9094,-7.9238,-7.9241,-7.9297,-7.9294,-7.9776,-7.9322,-7.9321,-7.932,-7.9319,0,-7.9271,-7.9398,-7.9262,-7.934,-7.9478,-7.9359,-7.9499,-7.9463,-7.9443,-7.9511,-7.9373,-7.9441,-7.9315,-7.9371,-7.9299,-7.9422,-7.9432,-7.9401,-7.9379,-7.9411,-7.9414,-7.9422,-7.9397,-7.9332,-7.9329,-7.9327,-7.9325,0,-7.9671,-7.9585,-7.9713,-7.9653,-7.964,-7.9745,-7.9692,-7.9763,-7.9706,-7.9795,-7.9809,-7.972,-7.9778,-7.9688,-7.9737,-7.9688,-7.9859,-7.9808,-7.9863,-7.9846,-7.9994,-7.998,-8.0494,-8.0554,-8.0067,-8.0071,-8.0075,0,-7.9907,-8.0001,-7.995,-7.9985,-7.9974,-8.0033,-8.0057,-7.9945,-7.9976,-7.9966,-8.0038,-8.0084,-8.0114,-8.0215,-8.0155,-8.0191,-8.0138,-8.0316,-8.0142,-8.017,-8.0135,-8.0129,-8.0137,-8.035,-8.0356,-8.036,-8.0364,0,-8.0334,-8.0286,-8.0326,-8.0352,-8.0384,-8.0399,-8.0404,-8.0442,-8.0323,-8.0366,-8.0422,-8.0446,-8.0494,-8.0541,-8.0563,-8.0544,-8.0435,-8.042,-8.0455,-8.0485,-8.0511,-8.0495,-7.9955,-8.0408,-8.0403,-8.04,-8.0398,-8.0396,-8.0656,-8.073,-8.0705,-8.0754,-8.0746,-8.0754,-8.0815,-8.0766,-8.0811,-8.084,-8.0772,-8.0845,-8.0828,-8.0845,-8.0838,-8.0894,-8.0816,-8.0867,-8.0879,-8.0893,-8.0914,-8.0507,-8.0899,-8.0897,-8.0896,-8.0895,-8.0894,0,-8.1071,-8.1047,-8.1093,-8.1103,-8.1142,-8.1036,-8.1037,-8.1076,-8.1141,-8.1134,-8.1166,-8.1231,-8.1276,-8.1221,-8.1256,-8.1312,-8.1263,-8.1325,-8.1317,-8.1314,-8.0984,-8.0948,-8.1364,-8.1364,-8.1363,-8.1363,-8.1363,-8.1363,-8.1291,-8.141,-8.1361,-8.1475,-8.145,-8.1519,-8.1528,-8.1535,-8.1527,-8.1605,-8.1642,-8.1605,-8.1578,-8.1611,-8.1648,-8.163,-8.1648,-8.1727,-8.1693,-8.1384,-8.1338,-8.1294,-8.1259,-8.1733,-8.1734,-8.2017,-8.202,-8.2022]},{"header":{"parameterUnit":"m.s-1","parameterCategory":1,"la1":30.2991,"la2":30.254,"lo1":-89.0895,"lo2":-89.0444,"dy":0.0017,"dx":0.0017,"nx":28,"ny":28,"refTime":"2024-06-19T03:00:00:Z","depth":0,"parameterNumber":3,"parameterNumberName":"V-component_of_WINDS"},"data":[0,0,0,0,0,0,0,0,0,0,0,0,0,0,0,0,0,0,0,0,0,0,0,0,0,0,0,0,0,0,0,0,0,0,0,0,0,0,0,0,0,0,0,0,0,0,0,0,0,0,0,0,0,0,0,0,0,0,0.9852,0.9851,0,0.9753,0.9752,0.9751,0.9635,0.9633,0.9631,0.963,0.9527,0.9526,0.9525,0,0,0,0,0,0,0,0,0,0,0,0,0,0.9939,0.9938,0.9852,0.9851,0.9849,0.9754,0.9752,0.9751,0.9635,0.9633,0.9631,0.9629,0.9527,0.9526,0.9525,0,0,0,0,0,0,0,0,0,0,0,0,0,0.9877,0.9938,0.9852,0.978,0.9773,0.9754,0.9752,0.975,0.9636,0.9633,0.963,0.9628,0.9528,0.9526,0.9525,0.9568,0,0,0.952,0.9519,0,0,0,0,0,0,0,0,0.9881,0.9874,0.9792,0.9785,0.9777,0.9704,0.9745,0.9689,0.9636,0.9688,0.963,0.9627,0.9588,0.9581,0.9568,0.9563,0.9559,0.952,0.9519,0.9518,0.9518,0,0,0,0,0,0,0,0.9885,0.9878,0.9813,0.9791,0.9782,0.9753,0.9741,0.9734,0.9654,0.9683,0.9674,0.9664,0.9583,0.957,0.9565,0.9557,0.952,0.9518,0.9517,0.9517,0.9583,0.9586,0,0,0,0,0,0,0.99,0.9882,0.9816,0.981,0.9823,0.9753,0.974,0.973,0.9654,0.9639,0.9667,0.9659,0.9574,0.9567,0.9561,0.9607,0.9518,0.9516,0.9516,0.9581,0.9584,0.9587,0,0,0,0,0,0,0.9903,0.9896,0.982,0.9843,0.9832,0.9755,0.9744,0.9729,0.9716,0.9641,0.9626,0.9668,0.9572,0.9563,0.9567,0.9602,0.9516,0.9514,0.9578,0.9582,0.9586,0.97,0,0,0,0,0,0,0.9906,0.9897,0.9913,0.9845,0.9831,0.9828,0.9746,0.9729,0.9714,0.9703,0.9639,0.9626,0.9569,0.9571,0.9566,0.9598,0.9513,0.9574,0.9579,0.9584,0.9693,0.9707,0.972,0,0,0,0,0,0.9909,0.9948,0.9914,0.9907,0.9849,0.9831,0.9822,0.9757,0.9717,0.9732,0.9685,0.9628,0.9599,0.9572,0.9566,0.9598,0.9572,0.9578,0.9584,0.9687,0.9705,0.972,0,0,0,0,0,0,1.0021,0.9938,0.9899,0.9917,0.9882,0.9811,0.9828,0.9778,0.9753,0.9744,0.9664,0.965,0.9664,0.9631,0.9602,0.9637,0.9577,0.9583,0.9657,0.9674,0.9687,0.9695,0.9512,0,0,0,0,0,1.0049,1.0041,0.9968,0.9991,0.9976,0.9906,0.9895,0.9848,0.9808,0.9792,0.9744,0.9707,0.969,0.968,0.966,0.9688,0.9672,0.9707,0.9721,0.9732,0.9738,0.9751,0.9766,0.9607,0.9607,0.9607,0,0,1.0104,1.0057,1.0057,1.0013,0.998,0.9974,0.9893,0.989,0.9885,0.9791,0.9792,0.9757,0.971,0.9727,0.9731,0.9699,0.9778,0.974,0.975,0.9749,0.9759,0.9774,0.9787,0.9612,0.9611,0.961,0,0,1.0201,1.0166,1.0181,1.0151,1.0102,1.0055,1.006,0.9996,0.9969,0.9969,0.99,0.9892,0.9864,0.9834,0.9815,0.9904,0.9851,0.9899,0.9971,0.9984,0.9997,1.0007,1.004,1.0052,0.9905,0.9905,0.9905,0,1.0276,1.0264,1.0195,1.0197,1.018,1.0096,1.0112,1.0085,1.0033,1.0023,0.9988,0.9952,0.9914,0.9923,0.9945,0.9933,0.9935,0.9906,1.0001,1.0011,1.002,1.0049,1.0062,0.9912,0.9911,0.991,0.991,0,1.0359,1.0352,1.0371,1.0323,1.0308,1.0317,1.0249,1.0242,1.0198,1.0155,1.0157,1.0109,1.0079,1.0077,1.0033,1.008,1.0062,1.0016,0.9954,1.0042,1.0069,1.008,0.992,0.9918,0.9916,0.9915,0,0,1.0523,1.0439,1.0447,1.0425,1.0367,1.036,1.0365,1.0336,1.0332,1.0299,1.0302,1.0281,1.0238,1.0216,1.0168,1.018,1.0255,1.0132,1.0129,1.0156,1.0305,1.034,1.0354,1.022,1.0221,1.0223,1.0309,0,1.061,1.0615,1.0554,1.0575,1.0568,1.049,1.0494,1.0459,1.042,1.0408,1.0364,1.0351,1.0295,1.0282,1.029,1.0244,1.0283,1.0237,1.0221,1.0221,1.0235,1.0368,1.0405,1.0488,1.0319,1.032,1.0321,0,1.0712,1.0686,1.0707,1.0649,1.0644,1.0649,1.0619,1.0609,1.0567,1.0538,1.0516,1.0461,1.0462,1.0405,1.0405,1.0375,1.0365,1.0342,1.0343,1.0339,1.0277,1.0368,1.0513,1.0526,1.0337,1.0336,1.0335,0,1.083,1.0801,1.081,1.0793,1.0726,1.0731,1.0703,1.066,1.0647,1.062,1.0611,1.0584,1.057,1.0551,1.049,1.0454,1.0498,1.0436,1.0474,1.0476,1.0486,1.0486,1.0632,1.048,1.048,1.048,1.048,0,1.0933,1.095,1.0862,1.0868,1.0883,1.0814,1.0831,1.0795,1.0758,1.0755,1.0685,1.0684,1.0605,1.0595,1.0548,1.0556,1.055,1.0526,1.0513,1.0532,1.0535,1.0524,1.0517,1.0483,1.0482,1.0482,1.0481,0,1.1068,1.101,1.1014,1.0951,1.0935,1.095,1.0895,1.0898,1.0855,1.0853,1.0848,1.078,1.0765,1.0704,1.0673,1.0642,1.0665,1.064,1.068,1.0671,1.0713,1.071,1.0857,1.0873,1.0712,1.0713,1.0715,0,1.1137,1.1148,1.1086,1.108,1.1056,1.1046,1.1033,1.0965,1.0954,1.0909,1.0917,1.0897,1.0877,1.0857,1.0805,1.0781,1.0755,1.0808,1.0751,1.077,1.0756,1.0757,1.0757,1.0821,1.0823,1.0825,1.0826,0,1.1268,1.1239,1.1223,1.1198,1.1184,1.1161,1.1133,1.1132,1.1056,1.1048,1.1032,1.1017,1.0987,1.0968,1.0936,1.0907,1.0854,1.0845,1.0852,1.0871,1.0894,1.0883,1.0713,1.0841,1.084,1.0839,1.0838,1.0837,1.1372,1.1378,1.1336,1.1321,1.1293,1.127,1.1269,1.1227,1.1213,1.1184,1.1145,1.1135,1.1094,1.1046,1.1022,1.1012,1.0983,1.0994,1.0996,1.1,1.101,1.0896,1.1006,1.1006,1.1005,1.1005,1.1005,0,1.1499,1.1468,1.1455,1.1419,1.1408,1.1361,1.1328,1.1321,1.1313,1.128,1.1263,1.1246,1.1227,1.1174,1.1151,1.1154,1.1129,1.115,1.1149,1.1143,1.1038,1.1034,1.117,1.117,1.117,1.117,1.117,1.117,1.1563,1.1572,1.1539,1.1533,1.1502,1.1492,1.1478,1.1456,1.1429,1.1413,1.1398,1.1364,1.1324,1.1297,1.1278,1.1263,1.1257,1.1286,1.1263,1.1166,1.115,1.1135,1.1131,1.1286,1.1286,1.1369,1.137,1.1371]}]]